Location: ???????
(55.4362°N, 38.1183°E)
Time: 02:49:55
(UTC+00:00)

Cosmos 1932 - Visible Passes

Search period start: 23 October 2021 00:00
Search period end: 02 November 2021 00:00
Orbit: 943 x 986 km, 65.0° (Epoch: 22 October)

Date Brightness Start Highest point End Pass type
(mag) Time Alt. Az. Time Alt. Az. Time Alt. Az.
23 Oct 4.4 15:32:11 10° NW 15:38:27 79° NE 15:44:24 12° SE visible
23 Oct 5.8 17:20:07 10° WNW 17:25:33 32° WSW 17:28:51 20° SSW visible
24 Oct 4.6 15:54:36 10° NW 16:00:49 74° SW 16:06:48 11° SE visible
24 Oct 6.5 17:43:03 10° WNW 17:47:27 20° WSW 17:51:16 12° SSW visible
25 Oct 5.3 16:17:04 10° NW 16:23:02 49° SW 16:29:01 10° SSE visible
25 Oct 7.0 18:07:04 10° W 18:09:10 12° WSW 18:11:18 10° WSW visible
26 Oct 4.5 14:51:45 10° NW 14:58:01 81° NE 15:04:17 10° SE visible
26 Oct 6.0 16:39:41 10° WNW 16:45:05 32° WSW 16:50:30 10° S visible
27 Oct 4.7 15:14:10 10° NW 15:20:22 72° SW 15:26:36 10° SE visible
27 Oct 6.7 17:02:40 10° WNW 17:06:59 20° WSW 17:11:19 10° SSW visible
28 Oct 5.4 15:36:38 10° NW 15:42:35 48° SW 15:48:33 10° SSE visible
28 Oct 7.2 17:26:48 10° W 17:28:42 11° WSW 17:30:37 10° WSW visible
29 Oct 6.2 15:59:16 10° WNW 16:04:38 31° WSW 16:10:01 10° S visible
30 Oct 4.8 14:33:43 10° NW 14:39:56 71° SW 14:46:09 10° SSE visible
30 Oct 6.9 16:22:15 10° WNW 16:26:31 19° WSW 16:30:47 10° SSW visible
31 Oct 5.6 14:56:12 10° NW 15:02:08 47° WSW 15:08:05 10° SSE visible
31 Oct 7.4 16:46:33 10° W 16:48:13 11° WSW 16:49:54 10° WSW visible
01 Nov 6.4 15:18:50 10° WNW 15:24:10 30° WSW 15:29:31 10° S visible
